Showing default

ITAMSAT, 22826

Orbit data source: Space-Track

ITAMSAT, 22826 is a payload satellite owned by Satellife (IT) in SSO that was launched on Sun, 26 Sep 1993 UTC via an ARIANE 40 launch vehicle from the French Guiana (FRGUI). Payload-class satellites include a variety of spacecraft equipped with specific instruments for various scientific and technological missions. These include communications satellites like Starlink; space stations such as the ISS; scientific satellites like the Hubble; Earth observation satellites from companies like Planet Labs, Umbra, and HawkEye 360; GPS; miniature CubeSats for education and research; and military/defense satellites.

Loading next visibility...
Identifier
22826, 1993-061D
Orbit
SSO
Last TLE update
12 hours ago
Origin
Manufacturer
SSTL
Mission
Partially operational Commercial Communications
Bus & Motor
UOSAT, Unknown motor
Mass
50 kg wet, 50 kg dry
Launch date (UTC)
1993-09-26 (32 years ago)
Launch vehicle
ARIANE 40
Launch site
French Guiana (FRGUI)
Object type
Payload
Rocket body
Debris
Shape & HBR
Box + 1 Ant, 6.5 m
Radar Cross Section
0.597 m², Medium (>0.1 m² and < 1m²)

Expand to show TLE details & history

TLE from 12 hours ago
0 ITAMSAT
1 22826U 93061D   25181.90893052  .00000076  00000-0  45633-4 0  9990
2 22826  98.7304 243.4550 0009573  40.8841 319.3058 14.31219131657064
Epoch: 2025-06-30T21:48Z
TLE epoch observation values (Epoch: 2025-06-30T21:48:51.596Z)
Latitude
-0.00005°
Longitude
-2.97196°
Altitude
785.388 km
Speed
7.464 km/s
True Right ascension
16h 13m 49s
True Declination
0° 00' 00"
Sunlit
Object was in full shadow at epoch
Visualization orbit readout
Latitude
76.06898°
Longitude
-40.47488°
Altitude
795.288 km
Speed
7.465 km/s
Apparent Right ascension
10h 34m 16s
Apparent Declination
25° 55' 38"
Sunlit
Object is in daylight
Visualization observer readout
Local Sidereal Time
21:33:56
Azimuth
345.31° N
Elevation
-22.673°
Doppler factor
1
Orbital elements
Apogee altitude
791.66 km
Perigee altitude
777.946 km
Semi-major axis
7,162.94 km
Eccentricity
0.00096
Inclination
98.7304°
RAAN
243.455°
Arg. of periapsis
40.8841°
True anomaly
Unknown
Mean anomaly
319.3058°
Eccentric anomaly
Unknown
Mean motion
3.58019 °/min
Orbital period
100.55 mins
BSTAR
0.000045633
Loading maneuver chart data...
Loading SW <> Apogee altitude chart data...
Loading historical data...
Loading historical data...
Loading historical data...
Loading historical data...
Loading historical data...
Loading historical data...
Loading historical data...

ITAMSAT Visibility forecast

Observer location: undefined°, undefined°

Span
Click to sort rows by Start time (UTC) header in descending order
Start Az.
Max El. time (UTC)
Max El. Az.
Max El.
End time (UTC)
End Az.
9 mins2025-07-01 16:50:34.864Z18.817° NNE2025-07-01 16:55:34.864Z126.045° SE43.046°2025-07-01 16:59:34.864Z185.229° SSW
4 mins2025-07-01 18:32:34.864Z318.638° NNW2025-07-01 18:34:34.864Z292.874° NW14.243°2025-07-01 18:36:34.864Z269.184° W
8 mins2025-07-02 04:08:34.864Z169.076° S2025-07-02 04:12:34.864Z320.435° NNW43.91°2025-07-02 04:16:34.864Z344.392° N
|